Regional Weather Roundup
Issued by NWS

Home | Current Version | Previous Version | Graphics & Text | Print | Product List | Glossary On
Versions: 1 2 3 4 5 6 7 8 9 10 11 12 13 14 15 16 17 18 19 20 21 22 23 24 25 26 27 28 29 30 31 32 33 34 35 36 37 38 39 40 41 42 43 44 45 46 47 48 49 50
000
ASUS43 KLSX 070107
RWRMO

WEATHER SUMMARY FOR MISSOURI
NATIONAL WEATHER SERVICE SPRINGFIELD MO
800 PM CDT WED MAY 06 2015

NOTE: "FAIR" INDICATES FEW OR NO CLOUDS BELOW 12,000 FEET WITH NO
       SIGNIFICANT WEATHER AND/OR OBSTRUCTIONS TO VISIBILITY.
       CURRENT SKY AND/OR WEATHER CONDITIONS ARE NOT AVAILABLE FOR
       CHILLICOTHE AND FARMINGTON.

MOZ001>031-035>038-043-044-053-054-070200-
...NORTHERN AND WESTERN MISSOURI...

CITY           SKY/WX    TMP DP  RH WIND       PRES   REMARKS
KANSAS CTY INT PTCLDY    72  60  66 SE15      29.84F
KANSAS C DTWN  CLEAR     76  57  51 SE12G23   29.84S
LEE`S SUMMIT   PTCLDY    74  57  55 SE13G20   29.87F
ST JOSEPH      MOCLDY    70  62  76 SE16      29.82F
CHILLICOTHE      N/A     69  62  78 SE3       29.91S
KIRKSVILLE     PTCLDY    69  61  75 SE7       29.95S

$$
MOZ066>068-077>081-088>096-101>105-070200-
...SOUTHWEST MISSOURI...

CITY           SKY/WX    TMP DP  RH WIND       PRES   REMARKS
SPRINGFIELD    PTCLDY    73  54  51 SE16      29.94F
JOPLIN         PTCLDY    74  55  51 SE15G23   29.89F

$$
MOZ032>034-039>042-045>050-055>058-069>072-070200-
...CENTRAL MISSOURI...

CITY           SKY/WX    TMP DP  RH WIND       PRES   REMARKS
COLUMBIA       CLOUDY    75  55  49 S10       29.96S
JEFFERSON CITY CLOUDY    78  54  43 SE8       29.95S
ROLLA          PTCLDY    74  53  48 S10       29.98S
SEDALIA        PTCLDY    75  56  51 SE13      29.94R
WHITEMAN AFB   MOCLDY    75  58  54 S13G23    29.91R
WARRENSBURG    CLEAR     72  55  56 SE10      29.90S
OSAGE BEACH    CLEAR     75  54  46 S7        29.97R

$$
MOZ051-052-059>065-070200-
...EAST CENTRAL MISSOURI...

CITY           SKY/WX    TMP DP  RH WIND       PRES   REMARKS
ST LOUIS INTL  PTCLDY    82  50  32 S9        30.01S
SPIRIT OF STL  CLEAR     78  51  38 SE3       29.98S
ST CHARLES     CLEAR     79  50  36 S16       29.98S

$$
MOZ072>076-082>087-097>100-106>115-070200-
...SOUTH CENTRAL AND SOUTHEAST MISSOURI...

CITY           SKY/WX    TMP DP  RH WIND       PRES   REMARKS
CAPE GIRARDEAU CLEAR     75  54  47 S7        30.03S
FARMINGTON     CLEAR     73  52  46 SE6       30.07S
POPLAR BLUFF   CLEAR     75  51  43 SE7       30.01S
WEST PLAINS    MOCLDY    74  53  48 S7        30.02S

$$


USA.gov is the U.S. government's official web portal to all federal, state and local government web resources and services.